Flag for Canada Weather past 2 weeks in St. John's, Newfoundland and Labrador, Canada

Now
55 °F

Light rain. Fog.


Feels Like: 51 °F
Forecast: 53 / 67 °F
Wind: 18 mph from Northwest

Location: St. John's

Current Time: Jul 4, 2015 at 1:43:07 AM

Latest Report: Jul 4, 2015 at 12:30 AM


Visibility: 1 mi

Pressure: 29.66 "Hg

Humidity: 100%

Dew point: 55 °F

Location of St. John'sLocation

Historic Weather in St. John's — Graph

°F

St. John's temperature yesterday

Maximum temperature yesterday: 77 °F (at 2:30 PM)
Minimum temperature yesterday: 46 °F (at 12:30 AM)
Average temperature yesterday: 58 °F

Past Weeks' High & Low Weather Summary

 TemperatureHumidityPressure
High77 °F (Jul 3, 2:30 PM)100% (Jun 19, 8:30 PM)30.20 "Hg (Jun 19, 8:30 PM)
Low39 °F (Jun 23, 7:30 PM)35% (Jun 19, 12:30 PM)29.66 "Hg (Jul 3, 11:18 PM)
Average51 °F83%29.97 "Hg
* Reported Jun 19 12:30 AM — Jul 4 12:30 AM, St. John's, Weather by CustomWeather, © 2015

Note: Actual official high and low records may vary slightly from our data, if they occured in-between our weather recording intervals... More about our weather records

Advertising

St. John's weather history for previous 24 hours

 ConditionsComfort  
Time TempWeatherWind HumidityBarometerVisibility
12:30 AM
Sat, Jul 4
55 °FLight rain. Fog.18 mph100%29.66 "Hg1 mi
11:30 PM
Fri, Jul 3
57 °FRain. Fog.9 mph100%29.66 "Hg3 mi
11:18 PM55 °FRain. Fog.14 mph100%29.66 "Hg1 mi
10:30 PM55 °FRain. Fog.9 mph100%29.67 "Hg1 mi
9:30 PM59 °FLight rain. Fog.6 mph100%29.71 "Hg1 mi
8:30 PM59 °FLight rain. Fog.7 mph100%29.76 "Hg6 mi
7:30 PM63 °FLight rain. Overcast.5 mph94%29.78 "Hg15 mi
6:30 PM64 °FMostly cloudy.6 mph88%29.84 "Hg15 mi
5:30 PM68 °FLight rain. Mostly cloudy.5 mph78%29.85 "Hg15 mi
4:30 PM70 °FOvercast.8 mph69%29.86 "Hg15 mi
3:30 PM70 °FOvercast.12 mph69%29.88 "Hg15 mi
2:30 PM77 °FBroken clouds.15 mph54%29.89 "Hg15 mi
1:30 PM75 °FOvercast.12 mph57%29.89 "Hg15 mi
12:30 PM70 °FBroken clouds.6 mph73%29.91 "Hg15 mi
11:30 AM68 °FMostly cloudy.6 mph83%29.92 "Hg15 mi
10:30 AM63 °FLow clouds.6 mph94%29.93 "Hg8 mi
9:30 AM55 °FFog.7 mph100%29.94 "Hg3 mi
9:23 AM55 °FFog.8 mph100%29.95 "Hg2 mi
8:30 AM52 °FFog.6 mph100%29.95 "Hg0 mi
7:30 AM48 °FFog.7 mph100%29.95 "Hg0 mi
6:30 AM48 °FFog.7 mph100%29.96 "Hg0 mi
5:30 AM48 °FFog.7 mph100%29.97 "Hg0 mi
4:30 AM48 °FFog.10 mph100%29.96 "Hg0 mi
3:30 AM48 °FDrizzle. Fog.14 mph100%29.96 "Hg0 mi
2:30 AM48 °FSprinkles. Fog.5 mph100%29.98 "Hg1 mi
1:30 AM46 °FSprinkles. Fog.20 mph100%29.98 "Hg1 mi
Weather by CustomWeather, © 2015

See weather overviewHow to use our weather pages